DW9246 Weather Reports


time (UTC)temp
C
wind
direction
speed
KPH
gust
KPH
rain 1hr
cm
rain 24hr
cm
rain mn
cm
humidity
%
barometer
mb
20260506181015 16 190 8.0 16.1 0.00 0.00 0.00 70 1011.7
20260506175015 17 197 8.0 17.7 0.00 0.00 0.00 68 1011.4
20260506174015 17 194 11.3 24.1 0.00 0.00 0.00 66 1011.5
20260506173015 17 196 9.7 25.7 0.00 0.00 0.00 67 1011.4
20260506172015 17 194 12.9 24.1 0.00 0.00 0.00 64 1011.4
20260506171017 18 189 11.3 20.9 0.00 0.00 0.00 69 1011.4
20260506170016 18 182 11.3 22.5 0.00 0.00 0.00 66 1011.2
20260506164015 18 140 11.3 20.9 0.00 0.00 0.00 63 1011.1
20260506163016 19 150 12.9 19.3 0.00 0.00 0.00 63 1011.1
20260506162015 19 135 9.7 17.7 0.00 0.03 0.00 62 1011.1
20260506161015 18 146 9.7 19.3 0.00 0.05 0.00 63 1011.1
20260506160015 19 159 11.3 17.7 0.00 0.05 0.00 58 1011.1
20260506155014 19 130 8.0 14.5 0.00 0.05 0.00 60 1011.0
20260506154015 18 162 6.4 11.3 0.00 0.05 0.00 58 1011.0
20260506150015 18 161 6.4 17.7 0.00 0.05 0.00 58 1011.3
20260506145015 18 156 9.7 20.9 0.00 0.05 0.00 57 1011.3
20260506144015 18 131 6.4 12.9 0.00 0.05 0.00 59 1011.3
20260506143014 18 153 9.7 16.1 0.00 0.05 0.00 60 1011.5
20260506142015 18 161 11.3 20.9 0.00 0.05 0.00 60 1011.5
20260506141015 18 164 14.5 27.4 0.00 0.05 0.00 59 1011.6
20260506140016 18 166 14.5 24.1 0.00 0.05 0.00 60 1011.7
20260506135014 18 160 17.7 27.4 0.00 0.05 0.00 61 1011.8
20260506134015 18 143 14.5 27.4 0.00 0.05 0.00 62 1011.7
20260506133017 18 128 12.9 22.5 0.00 0.05 0.00 60 1011.7
20260506132015 18 138 12.9 33.8 0.00 0.05 0.00 60 1011.9
20260506131016 20 127 9.7 27.4 0.00 0.05 0.00 56 1011.6
20260506130016 19 339 6.4 14.5 0.00 0.05 0.00 52 1012.0
20260506125014 20 301 8.0 17.7 0.00 0.05 0.00 52 1012.2
20260506124014 19 239 11.3 24.1 0.00 0.05 0.00 53 1012.2
20260506123014 19 249 11.3 27.4 0.00 0.05 0.00 52 1012.2
20260506122015 19 233 11.3 22.5 0.00 0.05 0.00 53 1012.2
20260506121015 18 270 11.3 22.5 0.00 0.05 0.00 54 1012.3
20260506114014 18 259 11.3 25.7 0.00 0.05 0.00 55 1012.5
20260506113014 18 256 11.3 22.5 0.00 0.05 0.00 56 1012.5
20260506111014 18 345 8.0 20.9 0.00 0.05 0.00 55 1012.6
20260506110015 17 23 8.0 16.1 0.00 0.05 0.00 59 1012.7
20260506104014 18 171 4.8 14.5 0.00 0.05 0.00 59 1012.9
20260506103014 17 130 8.0 17.7 0.00 0.05 0.00 61 1012.9
20260506101014 17 156 8.0 17.7 0.00 0.05 0.00 59 1013.1
20260506100015 17 134 6.4 14.5 0.00 0.05 0.00 60 1013.1
20260506094014 17 138 11.3 20.9 0.00 0.05 0.00 62 1013.3
20260506093015 17 112 11.3 22.5 0.00 0.05 0.00 62 1013.2
20260506092014 16 83 14.5 22.5 0.00 0.05 0.00 59 1013.1
20260506091014 16 91 11.3 22.5 0.00 0.05 0.00 58 1012.9
20260506090017 16 290 6.4 19.3 0.00 0.05 0.00 57 1012.9
20260506083015 15 301 8.0 17.7 0.00 0.05 0.00 59 1012.7
20260506082014 15 327 8.0 25.7 0.00 0.05 0.00 61 1012.7
20260506081015 15 280 6.4 16.1 0.00 0.05 0.00 61 1012.5
20260506073015 13 220 4.8 19.3 0.00 0.05 0.00 68 1012.5
20260506072015 13 186 6.4 12.9 0.00 0.05 0.00 69 1012.5
20260506071015 13 177 3.2 9.7 0.00 0.05 0.00 70 1012.4
20260506062014 12 76 3.2 6.4 0.00 0.05 0.00 71 1012.2
20260506061021 12 109 3.2 6.4 0.00 0.05 0.00 73 1012.1
20260506051015 10 290 3.2 6.4 0.00 0.05 0.00 76 1011.7
20260506045015 10 40 4.8 11.3 0.00 0.05 0.00 75 1011.6
20260506044015 9 352 4.8 8.0 0.00 0.05 0.00 76 1011.6
20260506041015 10 316 8.0 11.3 0.00 0.05 0.00 76 1011.7
20260506040017 10 305 6.4 11.3 0.00 0.05 0.00 76 1011.7
20260506034016 11 278 4.8 9.7 0.00 0.05 0.00 74 1011.7
20260506032015 11 329 3.2 8.0 0.00 0.05 0.00 74 1011.7
20260506022014 11 270 11.3 17.7 0.00 0.05 0.00 72 1011.5
20260506020020 12 272 12.9 24.1 0.00 0.05 0.00 72 1011.2
20260506015014 12 272 14.5 20.9 0.00 0.05 0.00 71 1011.3
20260506014015 13 277 12.9 19.3 0.00 0.05 0.00 67 1011.4
20260506012016 13 307 14.5 25.7 0.00 0.05 0.00 63 1011.3
20260506011014 13 309 14.5 24.1 0.00 0.05 0.00 63 1011.4
20260506010017 13 320 9.7 19.3 0.00 0.05 0.00 64 1011.3
20260506005015 13 352 1.6 4.8 0.00 0.05 0.00 66 1011.5
20260506002015 13 306 9.7 20.9 0.00 0.05 0.00 69 1011.5
20260506001015 13 295 16.1 27.4 0.00 0.05 0.00 68 1011.6
20260505235015 13 291 16.1 32.2 0.00 0.05 0.05 65 1011.8
20260505234015 14 278 11.3 22.5 0.00 0.05 0.05 64 1011.8
20260505233015 14 288 14.5 22.5 0.00 0.05 0.05 63 1011.8
20260505232015 14 305 12.9 24.1 0.00 0.05 0.05 62 1011.7
20260505230019 14 319 17.7 29.0 0.00 0.05 0.05 62 1011.3
20260505225014 13 320 12.9 19.3 0.00 0.05 0.05 66 1011.4
20260505224014 12 342 11.3 17.7 0.00 0.05 0.05 71 1011.5
20260505223014 12 337 11.3 19.3 0.00 0.05 0.05 70 1011.6
20260505222015 13 328 9.7 16.1 0.00 0.05 0.05 66 1011.8
20260505221017 14 333 12.9 24.1 0.00 0.05 0.05 63 1011.9
20260505220016 14 4 16.1 29.0 0.00 0.05 0.05 64 1012.1
20260505215016 15 359 19.3 33.8 0.00 0.05 0.05 64 1012.0
20260505213014 13 327 30.6 53.1 0.00 0.05 0.05 68 1012.1
20260505212014 13 308 19.3 32.2 0.00 0.05 0.05 73 1012.4
20260505211014 13 282 14.5 40.2 0.00 0.05 0.05 78 1012.8
20260505210015 13 300 9.7 17.7 0.00 0.05 0.05 82 1012.7
20260505203014 12 318 4.8 11.3 0.00 0.05 0.05 83 1012.2
20260505202014 12 319 4.8 6.4 0.00 0.05 0.05 83 1012.2
20260505201014 13 319 3.2 4.8 0.00 0.05 0.05 83 1012.0
20260505200015 13 319 3.2 6.4 0.00 0.05 0.05 83 1011.7
20260505195014 13 319 3.2 6.4 0.00 0.05 0.05 82 1011.7
20260505194014 13 314 3.2 6.4 0.00 0.05 0.05 82 1011.4
20260505193019 13 334 4.8 8.0 0.00 0.08 0.05 82 1011.1
20260505192013 13 330 4.8 8.0 0.00 0.08 0.05 82 1011.1
20260505191015 13 336 3.2 9.7 0.00 0.08 0.05 82 1011.2
20260505190016 13 330 6.4 11.3 0.00 0.08 0.05 81 1011.1
20260505184013 14 331 3.2 6.4 0.00 0.10 0.05 81 1011.1
20260505183014 15 331 3.2 6.4 0.00 0.13 0.05 81 1011.0
20260505182014 15 331 1.6 4.8 0.00 0.15 0.05 81 1011.1